Location: *
(50.8512°N, 5.6907°E)
Time: 16:10:13
(UTC+00:00)

USA 234 - Pass Details

Date: 09 April 2020
Orbit: 1102 x 1106 km, 123.0° (Epoch: 14 May)

Event Time Altitude Azimuth Distance (km) Brightness Sun altitude
Rises 23:17:11 0° 65° (ENE) 3,924 6.4 -30.9°
Reaches altitude 10° 23:19:42 10° 62° (ENE) 2,966 5.7 -31.0°
Maximum altitude 23:26:07 61° 345° (NNW) 1,243 3.6 -31.1°
Drops below altitude 10° 23:32:31 10° 267° (W) 2,963 5.5 -31.1°
Sets 23:35:02 0° 264° (W) 3,920 6.1 -31.1°
